Andrews, TX

11:53 PM CDT on October 16, 2017 (GMT -0500)
Andrews

Weather History for KE11 - March, 2013

Change the Weather History Date:

Sunday, March 10, 2013

  Actual Average (KMAF) Record (KMAF)
Temperature  
Mean Temperature 44 °F -  
Max Temperature 53 °F 65 °F 88 °F (1954)
Min Temperature 36 °F 38 °F 14 °F (1948)
Degree Days  
Heating Degree Days 20    
Moisture  
Dew Point 18 °F    
Average Humidity 36    
Maximum Humidity 63    
Minimum Humidity 21    
Precipitation  
Precipitation 0.00 in - - ()
Sea Level Pressure  
Sea Level Pressure 30.08 in    
Wind  
Wind Speed 16 mph (North)    
Max Wind Speed 25 mph    
Max Gust Speed 37 mph    
Visibility 10 miles    
Events      
Averages and records for this station are not official NWS values.
T = Trace of Precipitation, MM = Missing Value Source: NWS Daily Summary

Daily Weather History Graph

Daily Weather History Graph

Search for Another Location

Airport or City:

Trip Planner

Search our weather history database for the weather conditions in past years. The results will help you decide how hot, cold, wet, or windy it might be!

Date:

Astronomy

Mar. 10, 2013 Rise Set
Actual Time 8:06 AM CDT 7:54 PM CDT
Civil Twilight 7:41 AM CDT 8:19 PM CDT
Nautical Twilight 7:13 AM CDT 8:47 PM CDT
Astronomical Twilight 6:44 AM CDT 9:16 PM CDT
Moon 7:05 AM CDT (3/10) 7:05 PM CDT (3/10)
Length of Visible Light 12h 37m
Length of Day
11h 48m
Waning Crescent, 2% of the Moon is Illuminated
Mar 10
Waning Crescent
Mar 11
New
Mar 19
First Quarter
Mar 27
Full
Apr 2
Last Quarter

Hourly Weather History & Observations

Time (CDT) Temp. Windchill Dew Point Humidity Pressure Visibility Wind Dir Wind Speed Gust Speed Precip Events Conditions
12:15 AM 51.3 °F - 19.9 °F 29% 29.88 in 10.0 mi NW 17.3 mph 24.2 mph N/A   Mostly Cloudy
12:35 AM 50.9 °F - 19.4 °F 29% 29.89 in 10.0 mi NW 15.0 mph 25.3 mph N/A   Scattered Clouds
12:55 AM 50.0 °F - 19.4 °F 30% 29.90 in 10.0 mi NNW 25.3 mph 33.4 mph N/A   Clear
1:15 AM 47.3 °F - 20.5 °F 35% 29.92 in 10.0 mi NNW 25.3 mph 34.5 mph N/A   Clear
1:35 AM 45.0 °F 37.1 °F 21.6 °F 40% 29.95 in 10.0 mi North 19.6 mph 32.2 mph N/A   Clear
1:55 AM 43.7 °F 36.6 °F 22.5 °F 43% 29.96 in 10.0 mi North 15.0 mph - N/A   Clear
3:15 AM 42.8 °F 35.4 °F 22.6 °F 45% 29.97 in 10.0 mi North 15.0 mph 23.0 mph N/A   Clear
3:35 AM 41.9 °F 35.9 °F 22.8 °F 47% 29.98 in 10.0 mi North 10.4 mph - N/A   Clear
3:55 AM 41.4 °F 36.2 °F 23.0 °F 48% 29.99 in 10.0 mi North 8.1 mph - N/A   Clear
4:15 AM 41.2 °F 33.4 °F 23.0 °F 48% 29.98 in 10.0 mi North 15.0 mph - N/A   Clear
4:35 AM 40.3 °F 33.0 °F 23.2 °F 51% 29.98 in 10.0 mi North 12.7 mph - N/A   Clear
4:55 AM 39.4 °F 33.2 °F 23.2 °F 52% 29.99 in 10.0 mi North 9.2 mph - N/A   Clear
5:15 AM 39.4 °F 31.4 °F 23.5 °F 53% 29.99 in 10.0 mi North 13.8 mph 17.3 mph N/A   Clear
5:35 AM 39.2 °F 32.5 °F 23.9 °F 54% 30.01 in 10.0 mi NNE 10.4 mph - N/A   Clear
5:55 AM 38.8 °F 31.2 °F 23.9 °F 55% 30.02 in 10.0 mi North 12.7 mph - N/A   Clear
6:15 AM 38.3 °F 30.1 °F 24.4 °F 57% 30.02 in 10.0 mi North 13.8 mph - N/A   Clear
7:15 AM 37.4 °F 29.3 °F 25.7 °F 63% 30.04 in 10.0 mi North 12.7 mph - N/A   Clear
7:35 AM 37.4 °F 28.2 °F 25.5 °F 62% 30.05 in 10.0 mi North 16.1 mph - N/A   Clear
7:55 AM 37.0 °F 28.9 °F 24.6 °F 61% 30.06 in 10.0 mi North 12.7 mph 19.6 mph N/A   Clear
8:15 AM 36.5 °F 27.8 °F 23.5 °F 59% 30.07 in 10.0 mi North 13.8 mph 25.3 mph N/A   Clear
8:35 AM 36.5 °F 29.2 °F 23.5 °F 59% 30.09 in 10.0 mi NNW 10.4 mph - N/A   Clear
8:55 AM 38.3 °F 29.7 °F 21.0 °F 50% 30.09 in 10.0 mi North 15.0 mph 20.7 mph N/A   Clear
9:15 AM 39.2 °F 29.6 °F 20.3 °F 47% 30.10 in 10.0 mi North 19.6 mph 25.3 mph N/A   Clear
9:35 AM 39.6 °F 30.6 °F 16.5 °F 39% 30.12 in 10.0 mi North 17.3 mph 29.9 mph N/A   Clear
9:55 AM 40.3 °F 30.2 °F 15.3 °F 36% 30.12 in 10.0 mi North 23.0 mph 29.9 mph N/A   Clear
10:15 AM 41.4 °F 31.9 °F 14.0 °F 33% 30.13 in 10.0 mi North 21.9 mph 28.8 mph N/A   Clear
10:35 AM 42.1 °F 32.3 °F 12.7 °F 30% 30.13 in 10.0 mi NNE 24.2 mph 33.4 mph N/A   Clear
10:55 AM 43.3 °F 33.8 °F 12.6 °F 29% 30.13 in 10.0 mi NNE 25.3 mph 32.2 mph N/A   Clear
11:15 AM 44.1 °F 35.4 °F 11.8 °F 27% 30.14 in 10.0 mi NNE 21.9 mph 36.8 mph N/A   Mostly Cloudy
11:35 AM 43.9 °F 35.4 °F 11.8 °F 27% 30.13 in 10.0 mi NNE 20.7 mph 33.4 mph N/A   Overcast
11:55 AM 45.7 °F 37.6 °F 11.5 °F 25% 30.13 in 7.0 mi NNE 21.9 mph 32.2 mph N/A   Overcast
12:15 PM 46.6 °F - 11.7 °F 24% 30.14 in 7.0 mi NNE 23.0 mph 29.9 mph N/A   Overcast
12:35 PM 47.3 °F - 12.0 °F 24% 30.14 in 7.0 mi North 23.0 mph 29.9 mph N/A   Overcast
12:55 PM 48.2 °F - 12.6 °F 24% 30.13 in 7.0 mi NNE 23.0 mph 27.6 mph N/A   Overcast
1:15 PM 48.2 °F - 12.9 °F 24% 30.13 in 7.0 mi NNE 24.2 mph 28.8 mph N/A   Overcast
1:35 PM 49.6 °F - 12.4 °F 22% 30.13 in 7.0 mi NNE 18.4 mph 28.8 mph N/A   Overcast
1:55 PM 49.5 °F - 12.9 °F 23% 30.12 in 7.0 mi NNE 17.3 mph 27.6 mph N/A   Overcast
2:15 PM 49.5 °F - 12.7 °F 23% 30.12 in 7.0 mi North 19.6 mph 28.8 mph N/A   Overcast
2:35 PM 51.3 °F - 12.9 °F 22% 30.11 in 7.0 mi NNE 15.0 mph 28.8 mph N/A   Overcast
2:55 PM 50.9 °F - 13.1 °F 22% 30.10 in 7.0 mi North 11.5 mph 25.3 mph N/A   Overcast
3:15 PM 52.0 °F - 13.3 °F 21% 30.09 in 10.0 mi North 17.3 mph 26.5 mph N/A   Mostly Cloudy
3:35 PM 53.2 °F - 14.0 °F 21% 30.09 in 10.0 mi North 13.8 mph 28.8 mph N/A   Scattered Clouds
3:55 PM 51.4 °F - 13.6 °F 22% 30.09 in 10.0 mi North 17.3 mph 25.3 mph N/A   Mostly Cloudy
4:15 PM 52.3 °F - 13.8 °F 22% 30.08 in 10.0 mi North 13.8 mph 20.7 mph N/A   Overcast
4:35 PM 52.5 °F - 14.5 °F 22% 30.09 in 10.0 mi NNW 20.7 mph 26.5 mph N/A   Overcast
4:55 PM 52.3 °F - 14.5 °F 22% 30.09 in 10.0 mi NNW 12.7 mph 24.2 mph N/A   Scattered Clouds
5:15 PM 51.3 °F - 14.5 °F 23% 30.08 in 10.0 mi North 16.1 mph 21.9 mph N/A   Scattered Clouds
5:35 PM 52.9 °F - 15.3 °F 23% 30.08 in 10.0 mi North 16.1 mph 23.0 mph N/A   Scattered Clouds
5:55 PM 52.0 °F - 15.3 °F 23% 30.08 in 10.0 mi North 17.3 mph 26.5 mph N/A   Mostly Cloudy
6:15 PM 51.3 °F - 16.0 °F 25% 30.08 in 10.0 mi NNW 18.4 mph - N/A   Scattered Clouds
6:35 PM 50.4 °F - 16.7 °F 26% 30.08 in 10.0 mi North 17.3 mph 26.5 mph N/A   Scattered Clouds
6:55 PM 50.4 °F - 17.2 °F 27% 30.09 in 10.0 mi NNW 18.4 mph 24.2 mph N/A   Scattered Clouds
7:15 PM 49.8 °F - 17.6 °F 28% 30.10 in 10.0 mi NNW 15.0 mph - N/A   Clear
7:35 PM 48.9 °F - 18.3 °F 30% 30.11 in 10.0 mi NNW 15.0 mph 18.4 mph N/A   Clear
7:55 PM 47.8 °F - 17.6 °F 30% 30.12 in 10.0 mi NW 12.7 mph - N/A   Clear
8:15 PM 47.1 °F - 17.8 °F 31% 30.13 in 10.0 mi NW 10.4 mph - N/A   Clear
8:35 PM 46.2 °F 43.3 °F 18.0 °F 32% 30.14 in 10.0 mi WNW 5.8 mph - N/A   Clear
9:15 PM 45.0 °F 41.2 °F 18.5 °F 35% 30.14 in 10.0 mi West 6.9 mph - N/A   Clear
9:35 PM 45.1 °F 41.4 °F 18.7 °F 35% 30.15 in 10.0 mi West 6.9 mph - N/A   Clear
9:55 PM 44.4 °F 42.0 °F 18.5 °F 35% 30.15 in 10.0 mi West 4.6 mph - N/A   Clear
10:15 PM 42.4 °F 39.6 °F 18.9 °F 39% 30.16 in 10.0 mi West 4.6 mph - N/A   Clear
10:35 PM 42.8 °F 39.3 °F 18.5 °F 38% 30.16 in 10.0 mi West 5.8 mph - N/A   Clear
10:55 PM 42.8 °F 38.6 °F 18.7 °F 38% 30.17 in 10.0 mi West 6.9 mph - N/A   Clear
11:15 PM 42.6 °F 38.4 °F 18.3 °F 38% 30.18 in 10.0 mi North 6.9 mph - N/A   Clear
11:35 PM 40.8 °F 36.9 °F 18.0 °F 40% 30.18 in 10.0 mi NW 5.8 mph - N/A   Clear
11:55 PM 41.0 °F 38.0 °F 18.1 °F 40% 30.17 in 10.0 mi NW 4.6 mph - N/A   Clear
12:15 AM 39.4 °F 37.2 °F 18.9 °F 44% 30.17 in 10.0 mi NW 3.5 mph - N/A   Clear
12:35 AM 39.0 °F 35.7 °F 18.1 °F 43% 30.17 in 10.0 mi NW 4.6 mph - N/A   Clear
12:55 AM 37.8 °F 34.2 °F 18.9 °F 47% 30.16 in 10.0 mi NW 4.6 mph - N/A   Clear